Retour au catalogue

FENGYUN 1C DEB

ActifPO
NORAD 35105·DEBRIS·🇨🇳 China

Lancé May 10, 1999 depuis Taiyuan Satellite Launch Center

Loading…

Prochains Passages (prochaines 24 heures)

TLE

VieillissantSource: Space-Track

Époque: Sep 8, 2026, 05:31 UTC

1 35105U 99025DKH 26251.23014841  .00000669  00000-0  18873-3 0  9999
2 35105  98.9636 252.2043 0110314 330.8732  28.6334 14.45989122983877

Suivez FENGYUN 1C DEB en temps réel avec AllMySat

Download on the App Store